Weather in Novodmitriyevka

Russia / Republic of Dagestan     44°05′10″N   46°29′10″E
temp.,
°C
wind,
m/s
gust,
m/s
humid.,
%
clouds,
%
prec.,
mm/h
press.,
hPa
HPBL,
m
10 may, mon
mon1000:00+9w101585100 1.9 10191329
03:00+10w91378100 2.6 10191081
06:00+10w91375100 2.8 10201172
09:00+13wnw913545 2.8 10201641
12:00+17wnw9123598 0.0 10192609
15:00+18wnw892994 0.0 10182873
18:00+15w5839100 0.0 1019323
21:00+13wsw585199 0.0 1021232
11 may, tue
tue1100:00+10w2363100 0.0 102130
03:00+9n337232 0.0 102033
06:00+10ene23715 0.0 1020122
09:00+16ese694648 0.0 10192084
12:00+18ese9103857 0.0 10172326
15:00+18ese911395 0.0 10171885
18:00+15ese69545 0.0 10181019
21:00+11ese35722 0.0 101878
12 may, wed
wed1200:00+10e23800 0.0 101729
03:00+9ese22830 0.0 101716
06:00+11se11770 0.0 101781
09:00+17e23580 0.0 10171019
12:00+21ese344624 0.0 10171594
15:00+23e444466 0.0 10161819
18:00+19e46598 0.0 1017359
21:00+13se35740 0.0 101791
13 may, thu
thu1300:00+12sse22785 0.0 101628
03:00+11ese33820 0.0 101635
06:00+13ese23784 0.0 1017110
09:00+19e23590 0.0 1016691
12:00+24e33440 0.0 10151098
15:00+26ene55430 0.0 10141162
18:00+21e46580 0.0 1015312
21:00+15ese33765 0.0 101642
14 may, fri
fri1400:00+13ese23800 0.0 101527
03:00+12ese34845 0.0 101550
06:00+15ese24775 0.0 1016131
09:00+23ese58540 0.0 1016663
12:00+28ese811370 0.0 1015988
15:00+28ese913350 0.0 1014845
18:00+22e716500 0.0 1014473
21:00+18ese616600 0.0 1014309